Weather History for KSBP - May, 2014

Change the Weather History Date:

Thursday, May 29, 2014

  Actual Average Record
Temperature  
Mean Temperature 68 °F -  
Max Temperature 82 °F 73 °F 96 °F (1973)
Min Temperature 53 °F 49 °F 41 °F (1976)
Cooling Degree Days 2    
Growing Degree Days 18 (Base 50)    
Moisture  
Dew Point 41 °F    
Average Humidity 41    
Maximum Humidity 80    
Minimum Humidity 17    
Precipitation  
Precipitation 0.00 in - - ()
Sea Level Pressure  
Sea Level Pressure 29.90 in    
Wind  
Wind Speed 5 mph (WNW)    
Max Wind Speed 16 mph    
Max Gust Speed -    
Visibility 10 miles    
Events      
Averages and records for this station are not official NWS values.
T = Trace of Precipitation, MM = Missing Value Source: NWS Daily Summary

Daily Weather History Graph

Daily Weather History Graph

Search for Another Location

Airport or City:

Trip Planner

Search our weather history database for the weather conditions in past years. The results will help you decide how hot, cold, wet, or windy it might be!

Date:

Astronomy

May. 29, 2014 Rise Set
Actual Time 5:50 AM PDT 8:10 PM PDT
Civil Twilight 5:21 AM PDT 8:39 PM PDT
Nautical Twilight 4:45 AM PDT 9:15 PM PDT
Astronomical Twilight 4:06 AM PDT 9:54 PM PDT
Moon 6:46 AM PDT (5/29) 9:06 PM PDT (5/29)
Length of Visible Light 15h 18m
Length of Day
14h 19m
New Moon, 1% of the Moon is Illuminated
May 29
New Moon
Jun 5
First Quarter
Jun 12
Full
Jun 19
Last Quarter
Jun 27
New

Hourly Weather History & Observations

Time (PDT) Temp. Dew Point Humidity Pressure Visibility Wind Dir Wind Speed Gust Speed Precip Events Conditions
12:56 AM 64.0 °F 37.9 °F 38% 29.87 in 10.0 mi Calm Calm - N/A   Clear
1:34 AM 64.4 °F 35.6 °F 34% 29.88 in 10.0 mi North - - N/A   Squalls
1:41 AM 66.2 °F 35.6 °F 32% 29.88 in 10.0 mi North - - N/A   Squalls
1:49 AM 66.2 °F 35.6 °F 32% 29.88 in 10.0 mi North - - N/A   Squalls
2:56 AM 60.1 °F 36.0 °F 41% 29.86 in 10.0 mi Calm Calm - N/A   Clear
3:56 AM 61.0 °F 35.1 °F 38% 29.86 in 10.0 mi Calm Calm - N/A   Clear
5:56 AM 57.9 °F 34.0 °F 41% 29.86 in 10.0 mi Calm Calm - N/A   Clear
6:56 AM 63.0 °F 33.1 °F 33% 29.88 in 10.0 mi West 4.6 mph - N/A   Clear
7:56 AM 69.1 °F 37.0 °F 31% 29.88 in 10.0 mi Calm Calm - N/A   Clear
8:56 AM 77.0 °F 32.0 °F 19% 29.89 in 10.0 mi West 3.5 mph - N/A   Clear
9:56 AM 77.0 °F 41.0 °F 28% 29.90 in 10.0 mi West 9.2 mph - N/A   Clear
10:29 AM 71.6 °F 48.2 °F 43% 29.92 in 10.0 mi ESE 13.8 mph - N/A   Clear
10:46 AM 71.6 °F 46.4 °F 41% 29.93 in 10.0 mi SE 10.4 mph - N/A   Clear
11:56 AM 72.0 °F 48.9 °F 44% 29.94 in 10.0 mi SSW 4.6 mph - N/A   Clear
12:28 PM 73.4 °F 48.2 °F 41% 29.94 in 10.0 mi WSW 8.1 mph - N/A   Clear
12:56 PM 75.0 °F 48.9 °F 40% 29.93 in 10.0 mi Variable 3.5 mph - N/A   Clear
1:56 PM 75.9 °F 50.0 °F 40% 29.92 in 10.0 mi WSW 4.6 mph - N/A   Scattered Clouds
2:56 PM 80.1 °F 32.0 °F 17% 29.91 in 10.0 mi NNW 16.1 mph - N/A   Scattered Clouds
3:56 PM 79.0 °F 35.1 °F 20% 29.90 in 10.0 mi NNW 16.1 mph - N/A   Clear
4:56 PM 77.0 °F 32.0 °F 19% 29.89 in 10.0 mi NW 13.8 mph - N/A   Scattered Clouds
5:56 PM 75.9 °F 39.9 °F 27% 29.88 in 10.0 mi NW 10.4 mph - N/A   Clear
6:56 PM 68.0 °F 43.0 °F 40% 29.90 in 10.0 mi NNW 15.0 mph - N/A   Clear
7:56 PM 61.0 °F 46.9 °F 60% 29.91 in 10.0 mi NW 9.2 mph - N/A   Clear
8:56 PM 55.9 °F 48.9 °F 77% 29.91 in 9.0 mi NW 9.2 mph - N/A   Clear
9:56 PM 55.0 °F 48.9 °F 80% 29.93 in 8.0 mi WNW 5.8 mph - N/A   Clear
10:56 PM 55.0 °F 48.0 °F 77% 29.94 in 8.0 mi Calm Calm - N/A   Clear
11:56 PM 53.1 °F 46.9 °F 80% 29.93 in 8.0 mi Calm Calm - N/A   Clear